Lawrenceville, IL

3:10 AM CDT on May 23, 2017 (GMT -0500)
Lawrenceville-Vincennes International

Weather History for KLWV - October, 2012

Change the Weather History Date:

Friday, October 19, 2012

  Actual Average Record
Temperature  
Mean Temperature 52 °F 57 °F  
Max Temperature 56 °F 68 °F 87 °F (2005)
Min Temperature 48 °F 45 °F 26 °F (1992)
Degree Days  
Heating Degree Days 13 9  
Month to date heating degree days 186 127  
Since 1 July heating degree days 251 166  
Cooling Degree Days 0 1  
Month to date cooling degree days 3 29  
Year to date cooling degree days 1695 1383  
Growing Degree Days 2 (Base 50)    
Moisture  
Dew Point 44 °F    
Average Humidity 67    
Maximum Humidity 86    
Minimum Humidity 47    
Precipitation  
Precipitation 0.17 in 0.13 in 0.94 in (2016)
Month to date precipitation 2.86 2.60  
Year to date precipitation 26.53 35.14  
Sea Level Pressure  
Sea Level Pressure 29.64 in    
Wind  
Wind Speed 10 mph (WSW)    
Max Wind Speed 21 mph    
Max Gust Speed 26 mph    
Visibility 8 miles    
Events Rain    
T = Trace of Precipitation, MM = Missing Value Source: NWS Daily Summary

Daily Weather History Graph

Daily Weather History Graph

Search for Another Location

Airport or City:

Trip Planner

Search our weather history database for the weather conditions in past years. The results will help you decide how hot, cold, wet, or windy it might be!

Date:

Astronomy

Oct. 19, 2012 Rise Set
Actual Time 7:04 AM CDT 6:05 PM CDT
Civil Twilight 6:37 AM CDT 6:32 PM CDT
Nautical Twilight 6:06 AM CDT 7:03 PM CDT
Astronomical Twilight 5:35 AM CDT 7:34 PM CDT
Moon 11:44 AM CDT (10/19) 9:45 PM CDT (10/19)
Length of Visible Light 11h 55m
Length of Day
11h 01m
Waxing Crescent, 24% of the Moon is Illuminated
Oct 19
Waxing Crescent
Oct 21
First Quarter
Oct 29
Full
Nov 6
Last Quarter
Nov 13
New

Hourly Weather History & Observations

Time (CDT) Temp. Dew Point Humidity Pressure Visibility Wind Dir Wind Speed Gust Speed Precip Events Conditions
12:53 AM 55.9 °F 36.0 °F 47% 29.56 in 10.0 mi SSW 15.0 mph - N/A   Overcast
1:53 AM 55.0 °F 37.0 °F 51% 29.57 in 10.0 mi WSW 10.4 mph - 0.00 in   Overcast
2:53 AM 52.0 °F 39.0 °F 61% 29.57 in 10.0 mi West 6.9 mph - 0.00 in   Overcast
3:53 AM 52.0 °F 37.9 °F 59% 29.56 in 10.0 mi WSW 5.8 mph - N/A   Overcast
4:53 AM 50.0 °F 42.1 °F 74% 29.56 in 10.0 mi South 5.8 mph - N/A   Overcast
5:53 AM 51.1 °F 39.0 °F 63% 29.56 in 10.0 mi SSW 10.4 mph - N/A   Mostly Cloudy
6:53 AM 52.0 °F 39.0 °F 61% 29.57 in 10.0 mi SW 8.1 mph - N/A   Overcast
7:53 AM 50.0 °F 42.1 °F 74% 29.58 in 6.0 mi SW 8.1 mph - 0.00 in Rain Light Rain
8:53 AM 48.9 °F 44.1 °F 83% 29.59 in 6.0 mi SSW 10.4 mph - 0.04 in Rain Light Rain
9:53 AM 48.9 °F 45.0 °F 86% 29.60 in 5.0 mi SW 10.4 mph - 0.03 in Rain Light Rain
10:42 AM 50.0 °F 44.6 °F 82% 29.60 in 9.0 mi SW 15.0 mph - 0.01 in Rain Light Rain
10:53 AM 48.9 °F 45.0 °F 86% 29.61 in 6.0 mi SW 15.0 mph - 0.01 in Rain Light Rain
11:22 AM 48.2 °F 46.4 °F 93% 29.62 in 4.0 mi SW 15.0 mph - 0.03 in Rain Light Rain
11:53 AM 50.0 °F 45.0 °F 83% 29.62 in 5.0 mi SW 15.0 mph - 0.04 in Rain Light Rain
12:04 PM 50.0 °F 46.4 °F 87% 29.62 in 5.0 mi WSW 11.5 mph - 0.01 in Rain Light Rain
12:17 PM 48.2 °F 46.4 °F 93% 29.62 in 7.0 mi WSW 9.2 mph - 0.01 in Rain Light Rain
12:26 PM 50.0 °F 46.4 °F 87% 29.62 in 10.0 mi WSW 10.4 mph - 0.01 in   Overcast
12:53 PM 50.0 °F 46.0 °F 86% 29.62 in 8.0 mi WSW 9.2 mph - 0.01 in Rain Light Rain
1:50 PM 51.8 °F 46.4 °F 82% 29.62 in 9.0 mi SW 9.2 mph - 0.00 in   Overcast
1:53 PM 51.1 °F 46.0 °F 83% 29.62 in 8.0 mi SW 9.2 mph - 0.00 in Rain Light Rain
2:26 PM 51.8 °F 46.4 °F 82% 29.63 in 10.0 mi West 10.4 mph - 0.02 in   Overcast
2:53 PM 50.0 °F 44.1 °F 80% 29.65 in 4.0 mi West 15.0 mph 26.5 mph 0.03 in Rain Light Rain
3:53 PM 51.1 °F 46.0 °F 83% 29.67 in 5.0 mi West 16.1 mph - 0.00 in Rain Light Rain
4:04 PM 50.0 °F 46.4 °F 87% 29.67 in 2.5 mi West 12.7 mph - 0.01 in Rain Rain
4:11 PM 50.0 °F 44.6 °F 82% 29.67 in 3.0 mi West 15.0 mph 20.7 mph 0.01 in Rain Light Rain
4:53 PM 51.1 °F 45.0 °F 80% 29.69 in 10.0 mi West 9.2 mph - 0.01 in   Overcast
5:53 PM 50.0 °F 44.1 °F 80% 29.71 in 10.0 mi WSW 10.4 mph - 0.00 in   Mostly Cloudy
6:53 PM 50.0 °F 44.1 °F 80% 29.73 in 10.0 mi West 12.7 mph - 0.00 in   Overcast
7:53 PM 48.9 °F 44.1 °F 83% 29.75 in 10.0 mi WSW 8.1 mph - N/A   Mostly Cloudy
8:53 PM 48.9 °F 44.1 °F 83% 29.76 in 10.0 mi West 8.1 mph - N/A   Overcast
9:53 PM 50.0 °F 44.1 °F 80% 29.76 in 10.0 mi WSW 9.2 mph - N/A   Overcast
10:53 PM 50.0 °F 44.1 °F 80% 29.77 in 10.0 mi SW 8.1 mph - N/A   Overcast
11:53 PM 48.9 °F 44.1 °F 83% 29.77 in 10.0 mi SW 6.9 mph - N/A   Overcast